Temp
62 62 62 62 62 62 62 62 62 62 62 62 62 62 62 62 61 58 55 61 62 66 64 59 60 61 60 57 59 56 43 40 45 48 52 60 55 61 64 61 59 61 60 61 66
62 61 61 61 61 61 62 62 62 61 61 61 61 61 61 61 54 52 63 65 66 66 59 57 54 58 51 54 55 49 40 44 53 52 53 58 56 57 56 56 56 57 59 63 64
60 60 60 61 61 61 61 61 61 61 61 61 61 61 61 59 49 54 64 65 65 65 60 60 59 55 48 50 51 50 43 50 55 57 56 58 58 57 54 53 58 58 57 59 60
60 60 59 60 60 60 60 61 61 61 61 60 60 61 60 54 41 57 64 65 65 62 61 58 55 48 47 46 53 46 53 55 57 59 57 53 58 56 55 58 63 62 62 59 59
58 58 58 58 59 59 60 60 60 60 60 60 60 60 54 45 48 61 63 64 63 62 57 56 50 48 44 47 49 46 50 56 58 56 55 58 53 54 54 60 62 61 62 60 60
57 57 57 57 58 58 59 59 59 59 60 60 60 60 48 38 59 64 61 60 60 57 54 54 51 52 48 47 44 49 49 50 53 53 53 53 52 53 53 60 60 61 58 58 60
57 57 56 56 57 57 58 58 59 59 59 60 60 57 46 44 59 61 60 57 57 56 51 55 54 49 48 45 51 49 44 46 47 50 50 54 48 49 56 57 57 58 58 60 62
56 56 56 56 57 57 57 57 58 58 58 59 59 51 41 58 57 57 59 56 59 59 55 56 55 49 46 49 46 42 40 33 44 50 51 50 42 50 57 54 54 57 59 57 61
56 56 56 56 56 56 57 57 57 58 59 59 50 46 39 60 52 57 57 53 54 55 55 60 52 45 45 37 32 34 27 34 39 50 50 46 43 52 56 54 52 52 57 59 62
56 56 56 56 56 56 56 56 57 57 55 56 53 41 47 46 54 56 55 55 49 49 48 47 43 36 34 32 25 28 32 37 35 45 47 45 45 50 53 55 53 51 51 53 60
55 56 56 56 55 56 51 45 41 40 46 42 43 43 48 54 56 51 54 50 49 44 35 40 32 29 33 39 41 39 39 34 39 46 43 42 42 44 50 49 48 49 50 52 55
55 55 55 56 56 56 48 39 42 43 34 44 45 46 51 53 44 49 54 42 40 33 38 34 31 38 42 42 40 39 36 35 42 47 45 42 41 44 47 49 50 51 50 51 55
55 55 55 55 55 48 42 43 51 47 33 38 43 42 44 49 42 43 49 44 38 34 35 31 36 42 40 38 37 37 35 37 37 43 45 39 38 42 46 48 51 54 57 58 57
55 55 55 54 46 44 41 50 50 46 21 29 37 43 46 46 39 50 51 45 39 34 36 35 42 39 38 36 40 32 42 42 41 37 30 40 24 36 39 43 48 53 55 57 58
54 54 54 53 42 40 47 50 48 40 1 36 39 53 47 38 38 41 50 45 35 35 36 32 35 35 35 37 42 36 43 41 39 33 31 30 23 30 39 40 46 51 51 55 58
54 54 54 46 42 45 48 48 41 13 1 29 38 36 35 35 38 41 41 43 41 36 36 35 42 39 37 41 41 41 38 37 36 32 21 31 28 31 36 42 46 53 50 52 53
55 54 50 47 38 47 45 40 19 11 27 26 30 34 31 31 33 35 33 30 26 21 24 30 32 39 41 34 39 37 30 22 18 17 19 31 27 33 39 43 45 47 49 51 52
53 53 48 47 46 45 42 28 14 13 23 35 32 33 27 31 32 32 26 22 30 28 23 19 21 30 36 34 32 33 32 23 11 16 22 31 24 33 45 50 54 55 51 51 50
52 41 40 44 45 42 33 21 16 19 31 30 30 23 22 31 27 26 18 19 28 28 21 18 20 34 37 38 37 30 28 36 26 26 20 23 31 40 44 46 47 47 49 50 52
38 37 38 45 45 38 29 24 23 31 35 35 23 23 14 21 19 17 18 25 23 27 25 23 16 29 33 36 36 33 36 25 27 14 13 21 25 29 35 41 44 44 47 50 51
37 31 38 45 42 32 23 20 27 34 35 31 24 24 23 19 20 18 22 30 32 27 26 23 20 22 29 29 26 26 25 28 28 26 18 17 23 39 39 44 45 47 46 50 49
31 25 38 41 29 26 24 24 36 30 35 33 30 26 23 24 20 19 21 28 34 30 22 28 22 14 20 32 35 32 29 26 18 18 22 24 25 43 43 45 45 48 48 46 48
32 26 37 39 23 24 27 27 32 31 32 30 27 30 31 26 20 24 27 35 35 29 25 24 11 2 14 23 30 26 26 27 24 23 20 17 21 44 41 42 46 43 44 47 47
32 24 27 33 33 27 25 22 23 33 32 34 31 31 28 24 29 22 25 32 34 33 38 32 19 15 10 19 23 20 24 28 26 16 19 20 23 31 35 36 39 42 45 43 44
32 24 26 21 26 28 27 20 23 22 32 32 27 29 27 21 23 23 28 29 33 36 32 25 11 20 23 24 25 24 24 26 24 25 19 23 23 29 33 36 40 44 45 46 49
29 26 20 20 29 27 28 25 25 27 25 25 24 29 30 24 26 24 28 29 28 32 30 28 15 22 13 24 24 21 24 25 26 27 27 27 25 36 38 40 40 43 44 45 48
33 32 30 24 16 22 25 26 26 29 32 32 31 28 26 28 32 34 36 36 33 26 23 23 14 9 9 21 20 6 20 25 26 29 29 23 31 38 37 39 42 43 45 47 49
MSLP
1021.14 1021.11 1021.05 1021.08 1020.96 1020.86 1020.73 1020.55 1020.32 1020.09 1019.72 1019.39 1018.89 1018.57 1018.17 1017.66 1017.04 1016.64 1015.77 1015.30 1014.93 1014.61 1014.33 1014.27 1013.91 1013.55 1013.37 1013.50 1013.31 1013.44 1014.62 1014.75 1013.55 1012.72 1011.69 1010.40 1009.67 1008.91 1008.74 1009.18 1009.69 1010.05 1010.58 1010.91 1011.52
1021.17 1021.07 1021.05 1021.09 1021.03 1020.90 1020.76 1020.48 1020.20 1020.02 1019.69 1019.40 1019.02 1018.62 1018.10 1017.48 1017.02 1016.04 1015.51 1015.20 1014.90 1014.66 1014.66 1014.31 1014.18 1013.94 1013.74 1013.38 1013.36 1013.75 1014.29 1013.91 1012.59 1011.94 1011.34 1010.73 1010.14 1009.54 1009.38 1009.51 1010.03 1010.71 1011.13 1011.31 1011.93
1021.39 1021.23 1021.11 1021.10 1020.99 1020.84 1020.64 1020.43 1020.17 1019.85 1019.64 1019.39 1018.87 1018.70 1018.20 1017.64 1016.93 1015.58 1015.30 1015.05 1014.99 1014.85 1014.76 1014.50 1014.12 1014.03 1014.05 1013.66 1013.35 1013.24 1013.18 1012.77 1012.18 1011.40 1011.29 1010.94 1010.38 1010.06 1009.88 1009.96 1009.94 1010.62 1011.46 1011.58 1011.83
1021.51 1021.40 1021.22 1021.12 1020.94 1020.75 1020.51 1020.23 1020.05 1019.75 1019.45 1019.37 1018.93 1018.62 1018.12 1017.95 1017.12 1015.26 1015.14 1015.12 1014.82 1014.77 1014.83 1014.41 1014.26 1014.26 1014.17 1013.84 1013.30 1013.16 1012.52 1012.24 1011.86 1011.35 1011.20 1011.03 1010.69 1010.35 1010.24 1010.10 1009.60 1009.92 1010.47 1011.51 1011.89
1021.63 1021.44 1021.17 1021.11 1020.89 1020.70 1020.43 1020.22 1019.89 1019.66 1019.40 1019.12 1018.89 1018.63 1018.35 1017.88 1016.42 1015.22 1015.13 1014.90 1014.76 1014.78 1014.80 1014.72 1014.59 1014.54 1014.32 1013.79 1013.47 1013.06 1012.80 1012.19 1011.69 1011.51 1011.26 1010.85 1010.79 1010.81 1010.22 1009.91 1009.68 1010.05 1010.53 1010.82 1011.20
1021.55 1021.56 1021.17 1021.18 1021.04 1020.63 1020.24 1020.19 1019.90 1019.54 1019.27 1019.03 1018.75 1018.62 1018.41 1017.58 1015.62 1015.17 1014.85 1014.99 1015.08 1015.14 1015.07 1014.87 1014.91 1014.83 1014.71 1014.20 1013.91 1012.98 1012.72 1012.54 1012.01 1011.57 1011.38 1011.32 1010.69 1010.70 1010.13 1009.78 1009.95 1009.89 1010.69 1010.71 1010.83
1021.64 1021.64 1021.36 1021.05 1021.10 1020.57 1020.18 1020.05 1019.74 1019.50 1019.10 1018.95 1018.66 1018.43 1017.87 1016.45 1015.35 1015.03 1015.05 1015.05 1015.03 1015.36 1015.56 1015.33 1015.30 1015.21 1015.04 1014.54 1014.01 1013.40 1013.17 1012.59 1012.12 1011.80 1011.49 1011.21 1010.33 1009.81 1009.86 1010.04 1010.02 1009.95 1009.77 1009.90 1009.94
1021.73 1021.49 1021.29 1021.08 1020.79 1020.48 1020.29 1019.87 1019.60 1019.15 1018.82 1018.63 1018.38 1018.58 1016.79 1015.38 1014.61 1014.80 1014.76 1014.68 1014.86 1015.09 1015.47 1015.71 1015.35 1015.57 1015.19 1014.90 1014.38 1014.24 1013.87 1013.23 1012.05 1011.92 1011.21 1011.86 1007.70 1009.39 1009.35 1009.64 1009.67 1009.54 1009.42 1009.19 1008.68
1021.49 1021.48 1021.43 1021.11 1020.82 1020.52 1020.05 1019.53 1019.22 1018.65 1018.17 1018.00 1018.42 1018.36 1015.96 1014.51 1014.23 1013.84 1014.30 1014.45 1014.57 1014.75 1015.02 1015.52 1015.47 1015.48 1015.35 1015.39 1015.33 1014.74 1014.28 1013.43 1012.29 1011.36 1011.39 1010.98 1008.50 1009.24 1009.03 1009.21 1009.22 1009.18 1008.87 1008.61 1008.09
1021.44 1021.33 1021.12 1020.95 1020.67 1020.27 1019.77 1019.24 1018.39 1017.62 1017.72 1017.68 1017.87 1018.31 1015.73 1014.41 1013.88 1013.65 1013.89 1014.09 1014.42 1014.93 1015.19 1015.39 1015.72 1015.12 1015.23 1015.52 1014.91 1014.37 1013.98 1012.85 1011.78 1010.92 1010.99 1010.29 1009.23 1009.36 1008.66 1008.52 1008.47 1008.51 1008.22 1007.80 1007.34
1021.41 1021.23 1021.03 1020.76 1020.59 1020.13 1019.88 1019.52 1018.42 1017.86 1017.84 1017.14 1016.71 1015.71 1014.50 1014.11 1013.98 1013.96 1014.23 1014.08 1014.47 1014.97 1015.46 1015.38 1015.51 1014.44 1014.38 1013.75 1013.19 1013.36 1013.05 1012.19 1011.38 1011.02 1011.03 1010.15 1009.47 1009.26 1008.65 1008.33 1008.10 1007.75 1007.72 1007.15 1006.65
1021.19 1021.05 1020.92 1020.78 1020.52 1020.18 1020.22 1020.09 1019.36 1019.51 1018.20 1017.11 1016.39 1015.45 1014.95 1014.91 1014.44 1014.10 1014.40 1014.55 1014.54 1015.16 1015.48 1015.54 1013.82 1013.96 1014.28 1013.90 1013.41 1013.27 1012.73 1011.63 1011.27 1010.73 1010.96 1010.06 1008.88 1008.89 1008.58 1007.97 1007.50 1007.09 1006.88 1006.39 1005.92
1021.04 1020.87 1020.74 1020.65 1020.40 1020.28 1020.15 1019.68 1018.91 1019.24 1018.76 1016.36 1015.16 1014.63 1014.26 1014.42 1013.60 1013.97 1014.45 1014.42 1014.78 1015.34 1015.39 1014.46 1013.08 1013.11 1013.50 1013.02 1012.98 1012.50 1011.96 1011.54 1011.20 1010.93 1010.71 1010.38 1008.49 1008.44 1007.69 1007.33 1006.72 1006.09 1005.76 1005.54 1005.32
1020.82 1020.63 1020.48 1020.54 1020.75 1020.28 1019.99 1019.38 1019.10 1019.22 1018.86 1016.11 1014.61 1013.65 1013.48 1013.90 1014.24 1013.13 1013.34 1014.47 1014.74 1014.72 1014.97 1013.80 1013.19 1013.23 1012.98 1012.49 1012.51 1011.58 1011.56 1011.40 1011.23 1011.43 1011.15 1010.87 1008.39 1007.94 1007.34 1006.73 1006.06 1005.40 1004.96 1004.29 1004.26
1020.53 1020.37 1020.25 1020.40 1020.62 1020.44 1019.93 1019.51 1019.40 1019.70 1019.20 1015.14 1014.20 1013.14 1013.45 1014.61 1014.97 1013.70 1013.76 1014.04 1014.36 1014.66 1014.70 1012.67 1012.55 1012.54 1011.98 1011.69 1011.92 1011.25 1011.50 1011.56 1011.45 1011.42 1011.46 1011.02 1010.74 1007.17 1006.67 1006.40 1005.56 1004.69 1004.07 1003.36 1003.10
1020.23 1020.10 1020.06 1020.35 1020.56 1020.09 1019.87 1019.90 1020.14 1020.94 1018.84 1015.59 1014.42 1014.11 1014.56 1015.32 1014.93 1014.56 1014.56 1015.24 1014.88 1014.75 1014.24 1013.67 1013.19 1012.86 1012.35 1012.13 1012.05 1012.04 1011.83 1011.70 1011.85 1012.09 1011.75 1009.08 1010.75 1006.33 1006.81 1005.73 1004.72 1003.67 1003.12 1002.92 1002.54
1019.82 1019.78 1019.93 1020.20 1020.21 1019.62 1019.97 1020.72 1021.36 1020.55 1017.87 1016.31 1015.35 1015.04 1015.21 1015.37 1015.18 1015.01 1015.08 1015.59 1016.32 1016.03 1015.18 1014.47 1012.87 1012.68 1013.20 1012.82 1012.20 1012.68 1012.80 1012.47 1012.36 1012.29 1010.08 1009.78 1010.29 1005.82 1005.11 1004.30 1003.96 1003.53 1002.81 1002.33 1002.20
1019.47 1019.48 1019.51 1019.56 1019.56 1019.75 1020.45 1020.84 1019.98 1018.62 1017.37 1015.95 1015.54 1015.48 1015.87 1015.81 1015.72 1015.52 1015.98 1016.44 1016.78 1016.88 1016.95 1016.09 1014.26 1014.12 1013.97 1013.01 1012.80 1012.14 1012.49 1011.90 1011.16 1011.45 1010.05 1009.78 1008.32 1004.00 1004.02 1004.09 1003.51 1003.13 1002.65 1002.08 1001.79
1019.06 1019.33 1019.36 1018.40 1018.79 1019.60 1020.43 1019.06 1017.97 1017.73 1016.95 1016.40 1016.13 1016.31 1016.48 1016.26 1016.47 1016.58 1017.03 1017.14 1016.87 1017.02 1017.60 1017.63 1016.12 1014.87 1014.27 1013.74 1013.63 1012.17 1011.85 1011.17 1011.90 1011.35 1010.87 1009.29 1006.70 1004.54 1004.22 1003.79 1003.43 1002.90 1002.29 1002.10 1001.33
1019.23 1019.20 1018.07 1017.68 1018.06 1019.20 1019.29 1017.71 1017.82 1016.94 1016.22 1016.04 1016.49 1016.90 1017.10 1017.11 1017.39 1017.43 1017.44 1016.93 1016.95 1017.12 1017.29 1017.65 1017.19 1015.58 1014.39 1013.74 1012.81 1013.00 1012.24 1012.08 1011.82 1011.34 1010.52 1008.59 1006.99 1004.48 1003.91 1003.51 1003.24 1002.90 1002.62 1001.82 1001.21
1018.94 1018.78 1016.57 1016.63 1017.98 1018.75 1017.75 1017.28 1016.69 1016.09 1015.97 1016.07 1016.32 1016.83 1017.06 1017.42 1017.48 1017.56 1017.28 1016.65 1016.47 1017.27 1017.54 1017.75 1017.68 1016.20 1015.25 1014.31 1014.17 1013.37 1012.83 1012.14 1011.85 1011.53 1010.14 1008.69 1006.36 1004.76 1004.52 1004.13 1003.35 1002.88 1002.51 1001.80 1001.14
1018.59 1018.58 1016.52 1016.75 1018.12 1017.46 1016.82 1015.56 1015.43 1015.43 1015.31 1015.39 1016.01 1016.29 1016.53 1016.69 1016.97 1016.99 1016.51 1015.95 1015.89 1016.38 1017.30 1017.01 1017.25 1017.16 1016.06 1014.30 1013.67 1013.35 1013.27 1013.37 1013.26 1011.98 1010.61 1008.49 1005.92 1004.57 1004.20 1004.06 1003.77 1003.27 1002.72 1002.03 1000.94
1018.26 1017.71 1016.45 1016.66 1016.62 1016.03 1015.18 1014.77 1015.09 1014.87 1014.39 1014.57 1014.99 1015.35 1015.42 1016.06 1016.47 1015.96 1015.29 1014.50 1015.16 1015.74 1016.02 1016.68 1017.35 1017.87 1016.38 1014.77 1013.48 1013.53 1013.78 1013.92 1014.32 1013.62 1011.70 1009.72 1006.95 1005.14 1005.12 1004.59 1003.60 1003.60 1003.15 1002.14 1001.27
1018.17 1017.69 1017.00 1016.40 1015.63 1015.17 1014.56 1014.09 1014.31 1013.85 1014.12 1013.93 1014.11 1014.77 1014.94 1015.06 1014.82 1014.83 1014.46 1014.03 1013.80 1014.30 1014.91 1015.84 1016.87 1017.13 1016.92 1015.39 1014.65 1014.27 1013.52 1013.57 1013.26 1012.98 1012.19 1010.18 1008.85 1005.75 1006.17 1005.68 1004.98 1003.73 1003.25 1002.72 1001.97
1017.99 1017.49 1016.86 1016.40 1014.83 1014.19 1013.55 1013.97 1013.70 1013.55 1013.45 1013.56 1013.63 1013.80 1013.87 1014.59 1014.46 1014.35 1013.56 1013.74 1013.72 1013.83 1014.56 1015.57 1016.55 1016.93 1016.39 1015.50 1014.79 1014.44 1013.69 1012.77 1012.72 1012.18 1011.63 1010.03 1009.79 1007.00 1006.16 1005.41 1005.32 1003.89 1002.94 1002.43 1001.70
1017.91 1017.64 1016.79 1016.17 1015.22 1014.38 1013.49 1013.05 1013.02 1012.52 1013.03 1012.51 1012.85 1012.05 1012.84 1013.37 1012.91 1012.19 1012.84 1013.12 1013.14 1013.42 1014.22 1014.92 1015.77 1016.59 1016.27 1015.51 1015.32 1014.33 1013.22 1011.92 1010.78 1010.75 1010.38 1009.49 1007.91 1005.43 1005.03 1004.45 1004.20 1003.91 1002.23 1001.55 1000.90
1016.89 1017.10 1016.39 1015.12 1015.09 1014.76 1013.57 1012.96 1012.22 1012.06 1011.83 1011.87 1011.69 1012.03 1012.18 1010.55 1011.30 1011.67 1012.10 1012.27 1012.62 1013.90 1014.20 1014.71 1015.66 1016.73 1016.12 1015.96 1015.55 1014.05 1010.68 1010.76 1009.99 1009.34 1008.85 1007.65 1006.60 1005.19 1004.04 1003.65 1002.70 1002.36 1001.95 1000.47 999.84
Wind_Speed
11 12 11 11 10 12 13 14 15 15 15 15 15 16 18 22 22 7 5 3 5 8 8 6 5 6 3 2 3 2 3 4 7 6 9 7 2 3 4 6 1 3 4 3 15
11 11 10 11 11 12 14 15 15 15 14 14 15 16 18 20 13 9 2 4 6 8 5 5 5 8 2 3 3 5 6 10 8 5 6 5 1 4 2 2 3 4 4 11 11
12 11 10 10 12 13 13 14 14 14 14 14 13 16 18 15 6 1 2 2 5 6 4 4 3 1 2 2 5 7 8 7 7 8 3 5 9 1 3 4 7 7 9 10 9
13 12 11 11 12 14 15 15 15 14 13 14 14 15 16 4 4 1 1 4 6 5 6 5 3 2 4 5 6 6 7 7 8 9 6 3 4 7 4 8 7 7 17 10 11
14 13 11 12 13 15 15 15 14 14 14 14 14 14 6 4 8 4 3 5 6 4 4 4 3 2 4 4 4 5 5 10 10 9 7 6 5 8 7 11 10 2 11 16 15
13 14 11 11 13 13 14 16 15 14 14 14 14 13 2 14 7 5 3 3 4 3 6 5 3 4 5 5 3 4 5 7 6 6 5 7 8 5 5 11 12 10 11 10 13
13 12 12 12 14 15 15 15 16 15 15 14 14 7 8 19 8 14 10 3 2 2 3 6 6 3 5 5 6 5 7 8 4 4 6 6 17 16 12 8 10 12 11 10 18
12 13 14 14 14 15 16 16 16 16 17 16 14 6 12 5 10 13 11 15 11 11 8 8 7 5 3 5 7 5 3 2 2 7 8 10 28 3 12 11 14 16 16 11 12
11 10 11 13 15 16 18 18 19 19 19 16 7 5 12 7 6 9 12 11 3 3 6 7 3 6 4 4 3 3 5 7 8 12 10 13 20 13 14 11 12 11 15 15 17
12 13 12 14 15 16 18 21 20 20 9 8 7 6 5 7 4 3 1 2 3 4 3 5 5 5 3 4 9 9 7 7 8 6 8 14 20 11 13 18 17 11 10 10 16
11 10 11 13 14 16 12 6 6 3 4 7 5 8 6 1 1 2 2 2 4 4 6 6 6 12 18 19 13 7 10 10 5 9 6 12 13 9 8 7 8 9 9 10 10
13 13 12 12 13 16 6 3 6 0 11 11 15 19 19 16 11 9 4 3 3 6 6 3 19 13 8 14 14 14 16 19 14 12 10 11 16 9 8 9 9 11 10 9 9
14 13 13 13 12 8 3 5 8 4 6 6 13 8 11 14 22 18 8 4 5 8 9 15 8 14 13 15 16 17 18 13 14 6 6 8 22 16 10 8 11 13 15 15 15
14 14 14 10 6 4 4 6 5 3 4 8 4 5 5 4 7 10 20 15 10 12 8 15 14 16 12 16 13 17 7 12 13 9 9 5 15 9 4 11 13 17 19 20 19
14 14 14 4 3 3 3 3 5 5 6 6 3 3 6 6 6 8 9 10 23 14 5 8 6 7 16 19 9 10 5 10 7 4 2 8 6 5 6 12 17 15 15 19 19
15 15 14 4 1 6 3 5 4 8 9 5 3 3 4 5 4 4 5 6 6 19 17 19 15 10 0 8 6 6 6 2 3 2 6 21 9 16 12 14 14 21 11 11 11
14 13 10 2 4 3 2 3 1 5 6 4 1 3 0 2 3 5 2 3 3 7 5 12 24 23 13 14 16 7 2 5 4 6 18 10 8 25 7 8 6 10 11 10 9
18 17 5 4 4 3 2 4 11 6 10 3 3 7 4 3 5 2 2 1 1 6 3 7 5 9 13 10 14 16 12 10 10 8 15 11 12 19 15 21 23 19 12 9 10
18 2 3 6 7 4 4 11 9 8 4 4 4 2 4 2 4 4 2 4 4 4 5 2 5 10 7 6 4 5 16 13 12 16 10 5 14 16 11 13 12 11 9 12 12
0 1 9 6 7 3 9 20 6 5 4 3 4 4 5 3 2 4 1 4 4 2 2 6 4 4 5 6 5 6 5 12 10 15 21 8 12 14 6 9 8 8 10 13 11
0 2 6 8 5 4 10 6 7 11 7 8 8 8 6 5 6 4 5 5 5 6 1 6 4 4 5 3 11 8 6 6 6 12 13 15 13 15 12 15 19 15 9 15 11
3 3 4 6 6 4 12 13 14 8 10 12 4 5 7 3 6 6 9 11 7 10 6 9 3 3 9 16 13 14 5 1 6 5 9 16 17 8 12 16 11 19 12 9 8
3 4 3 5 10 13 13 18 18 14 12 6 9 12 5 5 5 8 12 9 10 10 8 6 2 2 9 7 3 5 5 6 4 9 9 8 8 12 6 9 16 9 10 11 9
3 4 4 5 11 23 20 10 11 7 21 13 7 6 10 10 11 5 5 7 10 9 13 10 5 8 8 9 3 6 11 10 5 6 14 11 19 27 14 15 21 23 18 11 10
2 5 5 7 11 9 6 2 15 12 13 10 11 22 18 12 9 12 17 7 5 7 8 8 8 8 13 16 14 13 17 17 12 17 15 21 19 30 22 17 15 25 19 18 18
3 3 3 4 9 10 15 11 22 15 9 10 14 16 17 18 20 18 14 10 11 7 14 8 8 7 10 13 11 15 16 21 23 18 18 20 23 27 22 18 15 17 26 17 21
2 2 4 6 4 1 5 9 11 17 12 19 18 14 14 27 21 20 16 13 7 3 5 7 6 4 13 4 1 8 23 16 18 18 16 17 19 26 24 22 19 14 19 24 19
Wind_Direction
346 351 356 355 352 346 341 336 334 334 335 334 336 335 334 328 323 300 274 342 354 354 342 291 300 293 260 225 218 59 68 235 245 209 248 318 272 342 161 122 70 39 116 151 137
337 343 342 339 337 334 329 327 325 324 326 330 333 334 335 329 317 272 346 354 354 354 354 11 353 347 304 223 211 132 162 216 230 223 270 292 14 315 88 135 272 74 74 133 141
0 354 349 341 335 332 328 323 322 321 320 323 329 330 333 333 322 289 257 5 335 319 265 293 273 233 259 226 229 207 192 222 268 257 294 307 314 249 342 269 200 199 190 164 159
340 335 334 332 330 325 325 322 318 317 319 319 323 325 329 317 288 112 252 328 305 295 305 292 253 212 206 221 232 260 229 214 240 266 303 253 274 295 236 227 273 269 173 165 165
341 328 324 328 328 323 319 316 316 319 318 315 316 324 350 348 258 183 243 339 320 330 276 308 315 259 234 266 329 246 255 257 269 290 262 284 254 249 245 262 268 295 163 177 180
358 351 347 341 332 329 325 318 312 312 313 315 316 318 291 272 256 312 117 360 323 14 348 356 315 304 263 246 217 276 283 281 282 295 286 289 270 229 247 236 268 282 189 202 198
349 350 344 341 332 329 327 318 312 309 305 304 306 311 256 253 276 288 292 223 234 319 332 311 333 7 348 300 337 293 290 313 248 267 261 339 270 245 232 240 254 268 267 210 206
344 343 341 338 336 330 322 316 310 302 297 294 295 303 264 266 239 254 267 257 255 274 279 264 299 289 202 310 336 295 302 245 252 222 240 160 253 229 235 228 239 245 252 251 246
337 333 328 332 331 327 323 315 301 289 283 282 285 225 270 268 242 248 231 249 246 244 215 233 251 208 225 169 327 259 256 251 266 230 243 190 263 245 234 230 240 238 244 243 244
332 329 334 334 331 325 324 315 288 277 279 256 230 283 264 261 255 141 177 209 201 219 214 182 228 198 153 141 224 197 220 225 224 240 223 253 269 261 239 221 233 230 242 243 247
325 313 331 332 327 328 336 338 354 354 204 224 218 230 314 132 329 187 185 193 193 163 193 199 199 210 203 204 228 241 257 256 256 283 302 278 276 262 262 264 258 257 254 242 233
319 318 317 314 320 319 330 276 293 187 284 255 265 271 254 275 266 257 149 174 173 213 213 182 233 224 232 228 236 239 246 256 278 274 270 282 276 269 244 247 243 244 258 271 273
318 312 310 317 319 326 229 260 282 133 273 241 226 247 241 219 251 253 238 209 213 226 221 227 214 209 217 230 236 238 239 255 257 273 274 315 288 281 252 245 266 252 249 247 242
313 309 307 317 329 283 304 321 337 91 322 280 203 247 192 213 293 246 224 225 228 234 226 246 243 248 245 235 226 251 257 270 268 259 262 164 278 237 249 249 246 252 251 247 244
308 308 308 311 279 322 270 353 345 55 360 265 121 354 66 102 324 17 324 213 235 242 254 231 339 237 228 238 248 265 276 252 248 230 234 242 263 287 235 260 254 257 244 249 241
304 298 307 332 172 238 353 11 32 47 257 313 77 12 105 177 188 242 64 28 297 245 249 258 276 288 342 321 318 348 257 298 280 172 244 239 210 269 233 249 238 246 251 254 256
306 296 301 193 239 262 144 74 299 191 294 273 202 196 34 317 276 197 146 94 45 343 5 278 247 257 266 291 286 294 265 241 252 205 243 152 202 246 247 219 220 257 265 271 253
302 306 251 224 239 204 123 182 220 213 219 282 211 328 311 347 297 25 83 82 158 137 320 347 10 357 355 243 251 230 213 215 213 222 262 159 219 236 219 233 259 267 258 286 280
306 280 248 225 212 145 214 240 210 189 215 221 346 211 317 280 169 50 192 222 142 179 125 298 276 326 321 303 311 259 226 235 267 271 279 226 274 281 263 261 258 259 268 266 269
326 236 248 210 179 152 236 244 241 239 283 239 169 168 209 254 36 80 304 226 184 179 132 208 261 263 305 300 297 231 294 237 223 245 239 233 248 253 301 277 300 295 266 276 275
124 295 260 181 115 197 243 235 225 229 224 230 209 239 235 215 174 186 220 273 170 161 163 158 177 294 345 20 303 315 324 250 232 229 245 256 251 246 250 255 278 290 298 294 273
156 252 261 105 206 215 234 205 215 224 216 235 276 274 215 182 215 213 221 206 162 154 176 203 195 241 234 271 251 237 285 295 333 349 272 243 252 255 317 303 286 293 292 286 241
260 244 255 142 245 240 247 236 232 235 221 200 206 207 212 215 225 229 231 231 201 173 189 195 244 16 321 325 80 117 184 205 218 275 293 305 262 275 303 284 291 307 294 267 243
266 295 298 214 247 254 231 228 220 226 241 222 225 203 231 228 219 234 226 225 205 200 183 144 193 170 220 248 338 304 291 302 294 271 298 287 293 294 306 315 316 309 315 301 294
215 242 196 286 289 260 202 176 228 233 216 188 239 236 238 240 232 234 250 236 266 223 210 144 207 202 237 256 274 281 291 294 281 269 256 275 272 276 282 282 281 292 288 292 293
255 248 320 264 277 303 236 233 232 239 181 215 220 226 224 226 227 236 239 226 216 240 229 185 238 194 257 248 273 283 280 274 270 265 255 256 266 274 278 281 273 258 282 276 278
198 272 254 252 269 220 232 245 236 237 232 235 227 235 227 224 231 245 243 247 202 234 229 181 171 122 258 132 328 310 240 260 267 268 270 274 272 282 286 275 271 263 258 271 268